DW2778 Weather Reports


time (UTC)temp
F
wind
direction
speed
knots
gust
knots
rain 1hr
in
rain 24hr
in
rain mn
in
humidity
%
barometer
mb
20260504201601 79 194 6.1 14.8 0.00 0.00 0.00 31 1012.6
20260504194606 79 181 7.0 16.5 0.00 0.00 0.00 31 1012.7
20260504193100 79 218 7.0 14.8 0.00 0.00 0.00 30 1012.7
20260504191554 81 229 5.2 13.0 0.00 0.00 0.00 29 1013.1
20260504190114 79 225 4.3 14.8 0.00 0.00 0.00 30 1013.3
20260504184558 79 201 7.8 12.2 0.00 0.00 0.00 30 1013.4
20260504183058 79 233 3.5 13.0 0.00 0.00 0.00 30 1013.5
20260504181557 78 249 7.0 13.0 0.00 0.00 0.00 30 1013.7
20260504180142 77 235 2.6 13.0 0.00 0.00 0.00 31 1013.7
20260504174553 77 224 6.1 14.8 0.00 0.00 0.00 31 1013.8
20260504173100 77 221 4.3 10.4 0.00 0.00 0.00 32 1013.9
20260504171553 76 241 7.0 13.0 0.00 0.00 0.00 32 1014.2
20260504140113 65 192 5.2 15.6 0.00 0.00 0.00 55 1016.0
20260504120111 55 360 6.1 12.2 0.00 0.00 0.00 73 1017.0
20260504081555 51 186 7.8 15.6 0.00 0.00 0.00 76 1017.3
20260504050120 50 360 7.0 10.4 0.00 0.00 0.00 60 1017.4
20260504044552 50 360 7.0 10.4 0.00 0.00 0.00 60 1017.2
20260504043059 50 360 7.0 12.2 0.00 0.00 0.00 59 1017.3
20260504041549 49 360 5.2 9.6 0.00 0.00 0.00 62 1017.0
20260504040103 49 360 6.1 11.3 0.00 0.00 0.00 59 1017.1
20260504034552 49 360 4.3 8.7 0.00 0.00 0.00 58 1017.0
20260504033051 49 360 3.5 8.7 0.00 0.00 0.00 58 1016.9
20260504031623 50 360 5.2 8.7 0.00 0.00 0.00 57 1016.7
20260504030054 50 360 4.3 7.8 0.00 0.00 0.00 56 1016.8
20260504024556 50 18 4.3 8.7 0.00 0.00 0.00 56 1016.8
20260504023053 50 360 3.5 7.8 0.00 0.00 0.00 55 1016.8
20260504021554 51 16 4.3 7.8 0.00 0.00 0.00 55 1016.8
20260504020047 51 360 3.5 7.0 0.00 0.00 0.00 53 1016.7
20260504014549 52 360 2.6 5.2 0.00 0.00 0.00 52 1016.6
20260504013054 52 18 2.6 7.0 0.00 0.00 0.00 51 1016.3
20260504011556 53 360 2.6 4.3 0.00 0.00 0.00 50 1016.3
20260504010058 53 360 1.7 4.3 0.00 0.00 0.00 49 1016.3
20260504004555 54 360 2.6 5.2 0.00 0.00 0.00 48 1016.2
20260504003051 55 17 3.5 4.3 0.00 0.00 0.00 46 1015.8
20260504001608 56 16 1.7 4.3 0.00 0.00 0.00 44 1015.4
20260504000055 57 360 0.9 4.3 0.00 0.00 0.00 43 1015.2
20260503234553 58 360 3.5 8.7 0.00 0.00 0.00 41 1015.3
20260503233118 59 360 4.3 10.4 0.00 0.00 0.00 40 1015.2
20260503231554 59 318 7.8 11.3 0.00 0.00 0.00 39 1015.2
20260503230056 60 273 7.0 14.8 0.00 0.00 0.00 37 1015.2
20260503224553 60 310 7.8 13.9 0.00 0.00 0.00 37 1015.1
20260503223051 61 256 8.7 15.6 0.00 0.00 0.00 37 1015.0
20260503221549 60 297 6.1 15.6 0.00 0.00 0.00 37 1015.0
20260503220050 61 300 9.6 18.2 0.00 0.00 0.00 36 1015.0
20260503214555 61 260 8.7 16.5 0.00 0.00 0.00 35 1014.9
20260503213120 61 286 7.8 16.5 0.00 0.00 0.00 35 1014.8
20260503211617 61 263 7.0 16.5 0.00 0.00 0.00 36 1014.7
20260503210049 61 274 5.2 20.9 0.00 0.00 0.00 36 1014.7
20260503204603 61 272 10.4 17.4 0.00 0.00 0.00 34 1014.7
20260503203059 61 277 10.4 17.4 0.00 0.00 0.00 35 1014.8